<?xml version="1.0"?>
<gpx xmlns="http://www.topografix.com/GPX/1/1" xmlns:xsi="http://www.w3.org/2001/XMLSchema-instance" version="1.1" creator="GPX RubyGem 1.0.0 -- http://dougfales.github.io/gpx/" xsi:schemaLocation="http://www.topografix.com/GPX/1/1 http://www.topografix.com/GPX/1/1/gpx.xsd">
  <metadata>
    <name/>
    <time>2026-05-08T04:02:54+00:00</time>
    <bound minlat="90.0" minlon="180.0" maxlat="-90.0" maxlon="-180.0"/>
  </metadata>
  <trk>
    <name/>
    <trkseg>
      <trkpt lat="46.106713" lon="7.578672">
        <time>1970-01-01T00:00:00+00:00</time>
        <ele>2347.0</ele>
      </trkpt>
      <trkpt lat="46.106545" lon="7.578926">
        <time>1970-01-01T00:00:00+00:00</time>
        <ele>2348.0</ele>
      </trkpt>
      <trkpt lat="46.106472" lon="7.579">
        <time>1970-01-01T00:00:00+00:00</time>
        <ele>2349.0</ele>
      </trkpt>
      <trkpt lat="46.106323" lon="7.579174">
        <time>1970-01-01T00:00:00+00:00</time>
        <ele>2349.0</ele>
      </trkpt>
      <trkpt lat="46.106122" lon="7.579895">
        <time>1970-01-01T00:00:00+00:00</time>
        <ele>2354.0</ele>
      </trkpt>
      <trkpt lat="46.106016" lon="7.580272">
        <time>1970-01-01T00:00:00+00:00</time>
        <ele>2355.0</ele>
      </trkpt>
      <trkpt lat="46.10612" lon="7.581098">
        <time>1970-01-01T00:00:00+00:00</time>
        <ele>2360.0</ele>
      </trkpt>
      <trkpt lat="46.105986" lon="7.581795">
        <time>1970-01-01T00:00:00+00:00</time>
        <ele>2361.0</ele>
      </trkpt>
      <trkpt lat="46.105938" lon="7.582636">
        <time>1970-01-01T00:00:00+00:00</time>
        <ele>2370.0</ele>
      </trkpt>
      <trkpt lat="46.105956" lon="7.584025">
        <time>1970-01-01T00:00:00+00:00</time>
        <ele>2387.0</ele>
      </trkpt>
      <trkpt lat="46.105015" lon="7.58448">
        <time>1970-01-01T00:00:00+00:00</time>
        <ele>2399.0</ele>
      </trkpt>
      <trkpt lat="46.104699" lon="7.584773">
        <time>1970-01-01T00:00:00+00:00</time>
        <ele>2413.0</ele>
      </trkpt>
      <trkpt lat="46.104223" lon="7.585803">
        <time>1970-01-01T00:00:00+00:00</time>
        <ele>2441.0</ele>
      </trkpt>
      <trkpt lat="46.103725" lon="7.586168">
        <time>1970-01-01T00:00:00+00:00</time>
        <ele>2451.0</ele>
      </trkpt>
      <trkpt lat="46.103603" lon="7.586839">
        <time>1970-01-01T00:00:00+00:00</time>
        <ele>2464.0</ele>
      </trkpt>
      <trkpt lat="46.103766" lon="7.587396">
        <time>1970-01-01T00:00:00+00:00</time>
        <ele>2478.0</ele>
      </trkpt>
      <trkpt lat="46.10331" lon="7.58757">
        <time>1970-01-01T00:00:00+00:00</time>
        <ele>2484.0</ele>
      </trkpt>
      <trkpt lat="46.102686" lon="7.58853">
        <time>1970-01-01T00:00:00+00:00</time>
        <ele>2503.0</ele>
      </trkpt>
      <trkpt lat="46.102202" lon="7.5895">
        <time>1970-01-01T00:00:00+00:00</time>
        <ele>2520.0</ele>
      </trkpt>
      <trkpt lat="46.10191" lon="7.590249">
        <time>1970-01-01T00:00:00+00:00</time>
        <ele>2524.0</ele>
      </trkpt>
      <trkpt lat="46.101545" lon="7.591296">
        <time>1970-01-01T00:00:00+00:00</time>
        <ele>2532.0</ele>
      </trkpt>
      <trkpt lat="46.101039" lon="7.59194">
        <time>1970-01-01T00:00:00+00:00</time>
        <ele>2538.0</ele>
      </trkpt>
      <trkpt lat="46.100354" lon="7.591854">
        <time>1970-01-01T00:00:00+00:00</time>
        <ele>2534.0</ele>
      </trkpt>
      <trkpt lat="46.0997" lon="7.592455">
        <time>1970-01-01T00:00:00+00:00</time>
        <ele>2541.0</ele>
      </trkpt>
      <trkpt lat="46.099104" lon="7.592755">
        <time>1970-01-01T00:00:00+00:00</time>
        <ele>2544.0</ele>
      </trkpt>
      <trkpt lat="46.098658" lon="7.59254">
        <time>1970-01-01T00:00:00+00:00</time>
        <ele>2534.0</ele>
      </trkpt>
      <trkpt lat="46.098241" lon="7.593184">
        <time>1970-01-01T00:00:00+00:00</time>
        <ele>2561.0</ele>
      </trkpt>
      <trkpt lat="46.097795" lon="7.593313">
        <time>1970-01-01T00:00:00+00:00</time>
        <ele>2557.0</ele>
      </trkpt>
      <trkpt lat="46.097319" lon="7.593055">
        <time>1970-01-01T00:00:00+00:00</time>
        <ele>2554.0</ele>
      </trkpt>
      <trkpt lat="46.09717" lon="7.593098">
        <time>1970-01-01T00:00:00+00:00</time>
        <ele>2555.0</ele>
      </trkpt>
      <trkpt lat="46.096948" lon="7.593066">
        <time>1970-01-01T00:00:00+00:00</time>
        <ele>2556.0</ele>
      </trkpt>
      <trkpt lat="46.097081" lon="7.593442">
        <time>1970-01-01T00:00:00+00:00</time>
        <ele>2559.0</ele>
      </trkpt>
      <trkpt lat="46.096873" lon="7.593506">
        <time>1970-01-01T00:00:00+00:00</time>
        <ele>2558.0</ele>
      </trkpt>
      <trkpt lat="46.096798" lon="7.593624">
        <time>1970-01-01T00:00:00+00:00</time>
        <ele>2558.0</ele>
      </trkpt>
      <trkpt lat="46.096731" lon="7.593603">
        <time>1970-01-01T00:00:00+00:00</time>
        <ele>2557.0</ele>
      </trkpt>
      <trkpt lat="46.096664" lon="7.593763">
        <time>1970-01-01T00:00:00+00:00</time>
        <ele>2561.0</ele>
      </trkpt>
      <trkpt lat="46.096292" lon="7.593892">
        <time>1970-01-01T00:00:00+00:00</time>
        <ele>2568.0</ele>
      </trkpt>
      <trkpt lat="46.096084" lon="7.59386">
        <time>1970-01-01T00:00:00+00:00</time>
        <ele>2568.0</ele>
      </trkpt>
      <trkpt lat="46.095779" lon="7.593774">
        <time>1970-01-01T00:00:00+00:00</time>
        <ele>2562.0</ele>
      </trkpt>
      <trkpt lat="46.095518" lon="7.593753">
        <time>1970-01-01T00:00:00+00:00</time>
        <ele>2558.0</ele>
      </trkpt>
      <trkpt lat="46.095444" lon="7.594107">
        <time>1970-01-01T00:00:00+00:00</time>
        <ele>2567.0</ele>
      </trkpt>
      <trkpt lat="46.095221" lon="7.593881">
        <time>1970-01-01T00:00:00+00:00</time>
        <ele>2560.0</ele>
      </trkpt>
      <trkpt lat="46.095013" lon="7.593989">
        <time>1970-01-01T00:00:00+00:00</time>
        <ele>2566.0</ele>
      </trkpt>
      <trkpt lat="46.094462" lon="7.594085">
        <time>1970-01-01T00:00:00+00:00</time>
        <ele>2585.0</ele>
      </trkpt>
      <trkpt lat="46.094239" lon="7.593914">
        <time>1970-01-01T00:00:00+00:00</time>
        <ele>2588.0</ele>
      </trkpt>
      <trkpt lat="46.094179" lon="7.593924">
        <time>1970-01-01T00:00:00+00:00</time>
        <ele>2590.0</ele>
      </trkpt>
      <trkpt lat="46.094149" lon="7.594171">
        <time>1970-01-01T00:00:00+00:00</time>
        <ele>2603.0</ele>
      </trkpt>
      <trkpt lat="46.093971" lon="7.594053">
        <time>1970-01-01T00:00:00+00:00</time>
        <ele>2603.0</ele>
      </trkpt>
      <trkpt lat="46.0938" lon="7.593978">
        <time>1970-01-01T00:00:00+00:00</time>
        <ele>2611.0</ele>
      </trkpt>
      <trkpt lat="46.093699" lon="7.593891">
        <time>1970-01-01T00:00:00+00:00</time>
        <ele>2612.0</ele>
      </trkpt>
      <trkpt lat="46.093554" lon="7.593927">
        <time>1970-01-01T00:00:00+00:00</time>
        <ele>2626.0</ele>
      </trkpt>
      <trkpt lat="46.093651" lon="7.593976">
        <time>1970-01-01T00:00:00+00:00</time>
        <ele>2622.0</ele>
      </trkpt>
      <trkpt lat="46.093694" lon="7.594067">
        <time>1970-01-01T00:00:00+00:00</time>
        <ele>2626.0</ele>
      </trkpt>
      <trkpt lat="46.093728" lon="7.594223">
        <time>1970-01-01T00:00:00+00:00</time>
        <ele>2636.0</ele>
      </trkpt>
      <trkpt lat="46.093789" lon="7.594293">
        <time>1970-01-01T00:00:00+00:00</time>
        <ele>2636.0</ele>
      </trkpt>
      <trkpt lat="46.093815" lon="7.594463">
        <time>1970-01-01T00:00:00+00:00</time>
        <ele>2647.0</ele>
      </trkpt>
      <trkpt lat="46.09373" lon="7.594348">
        <time>1970-01-01T00:00:00+00:00</time>
        <ele>2646.0</ele>
      </trkpt>
      <trkpt lat="46.093657" lon="7.594345">
        <time>1970-01-01T00:00:00+00:00</time>
        <ele>2653.0</ele>
      </trkpt>
      <trkpt lat="46.093525" lon="7.594264">
        <time>1970-01-01T00:00:00+00:00</time>
        <ele>2657.0</ele>
      </trkpt>
      <trkpt lat="46.093339" lon="7.594375">
        <time>1970-01-01T00:00:00+00:00</time>
        <ele>2681.0</ele>
      </trkpt>
      <trkpt lat="46.093483" lon="7.594413">
        <time>1970-01-01T00:00:00+00:00</time>
        <ele>2672.0</ele>
      </trkpt>
      <trkpt lat="46.093584" lon="7.594702">
        <time>1970-01-01T00:00:00+00:00</time>
        <ele>2680.0</ele>
      </trkpt>
      <trkpt lat="46.09356" lon="7.594743">
        <time>1970-01-01T00:00:00+00:00</time>
        <ele>2683.0</ele>
      </trkpt>
      <trkpt lat="46.093419" lon="7.594602">
        <time>1970-01-01T00:00:00+00:00</time>
        <ele>2686.0</ele>
      </trkpt>
      <trkpt lat="46.093254" lon="7.594616">
        <time>1970-01-01T00:00:00+00:00</time>
        <ele>2696.0</ele>
      </trkpt>
      <trkpt lat="46.092759" lon="7.594424">
        <time>1970-01-01T00:00:00+00:00</time>
        <ele>2705.0</ele>
      </trkpt>
      <trkpt lat="46.092885" lon="7.594772">
        <time>1970-01-01T00:00:00+00:00</time>
        <ele>2710.0</ele>
      </trkpt>
      <trkpt lat="46.092685" lon="7.594732">
        <time>1970-01-01T00:00:00+00:00</time>
        <ele>2714.0</ele>
      </trkpt>
      <trkpt lat="46.092789" lon="7.594971">
        <time>1970-01-01T00:00:00+00:00</time>
        <ele>2716.0</ele>
      </trkpt>
      <trkpt lat="46.092558" lon="7.594912">
        <time>1970-01-01T00:00:00+00:00</time>
        <ele>2720.0</ele>
      </trkpt>
      <trkpt lat="46.092628" lon="7.59514">
        <time>1970-01-01T00:00:00+00:00</time>
        <ele>2727.0</ele>
      </trkpt>
      <trkpt lat="46.092429" lon="7.595114">
        <time>1970-01-01T00:00:00+00:00</time>
        <ele>2732.0</ele>
      </trkpt>
      <trkpt lat="46.09254" lon="7.595303">
        <time>1970-01-01T00:00:00+00:00</time>
        <ele>2737.0</ele>
      </trkpt>
      <trkpt lat="46.09242" lon="7.595319">
        <time>1970-01-01T00:00:00+00:00</time>
        <ele>2741.0</ele>
      </trkpt>
      <trkpt lat="46.092338" lon="7.595443">
        <time>1970-01-01T00:00:00+00:00</time>
        <ele>2749.0</ele>
      </trkpt>
      <trkpt lat="46.092293" lon="7.595566">
        <time>1970-01-01T00:00:00+00:00</time>
        <ele>2756.0</ele>
      </trkpt>
      <trkpt lat="46.092096" lon="7.595582">
        <time>1970-01-01T00:00:00+00:00</time>
        <ele>2768.0</ele>
      </trkpt>
      <trkpt lat="46.092167" lon="7.595673">
        <time>1970-01-01T00:00:00+00:00</time>
        <ele>2766.0</ele>
      </trkpt>
      <trkpt lat="46.092133" lon="7.595732">
        <time>1970-01-01T00:00:00+00:00</time>
        <ele>2770.0</ele>
      </trkpt>
      <trkpt lat="46.092055" lon="7.595732">
        <time>1970-01-01T00:00:00+00:00</time>
        <ele>2775.0</ele>
      </trkpt>
      <trkpt lat="46.092137" lon="7.595834">
        <time>1970-01-01T00:00:00+00:00</time>
        <ele>2775.0</ele>
      </trkpt>
      <trkpt lat="46.091925" lon="7.595952">
        <time>1970-01-01T00:00:00+00:00</time>
        <ele>2791.0</ele>
      </trkpt>
      <trkpt lat="46.091783" lon="7.595925">
        <time>1970-01-01T00:00:00+00:00</time>
        <ele>2799.0</ele>
      </trkpt>
      <trkpt lat="46.091542" lon="7.595711">
        <time>1970-01-01T00:00:00+00:00</time>
        <ele>2806.0</ele>
      </trkpt>
      <trkpt lat="46.091356" lon="7.595684">
        <time>1970-01-01T00:00:00+00:00</time>
        <ele>2812.0</ele>
      </trkpt>
      <trkpt lat="46.091274" lon="7.595614">
        <time>1970-01-01T00:00:00+00:00</time>
        <ele>2812.0</ele>
      </trkpt>
      <trkpt lat="46.09098" lon="7.595443">
        <time>1970-01-01T00:00:00+00:00</time>
        <ele>2812.0</ele>
      </trkpt>
      <trkpt lat="46.090872" lon="7.595572">
        <time>1970-01-01T00:00:00+00:00</time>
        <ele>2818.0</ele>
      </trkpt>
      <trkpt lat="46.090623" lon="7.596032">
        <time>1970-01-01T00:00:00+00:00</time>
        <ele>2825.0</ele>
      </trkpt>
      <trkpt lat="46.090573" lon="7.596093">
        <time>1970-01-01T00:00:00+00:00</time>
        <ele>2824.0</ele>
      </trkpt>
      <trkpt lat="46.090442" lon="7.596282">
        <time>1970-01-01T00:00:00+00:00</time>
        <ele>2823.0</ele>
      </trkpt>
      <trkpt lat="46.090361" lon="7.596676">
        <time>1970-01-01T00:00:00+00:00</time>
        <ele>2824.0</ele>
      </trkpt>
      <trkpt lat="46.090306" lon="7.596806">
        <time>1970-01-01T00:00:00+00:00</time>
        <ele>2824.0</ele>
      </trkpt>
      <trkpt lat="46.090091" lon="7.597059">
        <time>1970-01-01T00:00:00+00:00</time>
        <ele>2824.0</ele>
      </trkpt>
      <trkpt lat="46.089983" lon="7.597143">
        <time>1970-01-01T00:00:00+00:00</time>
        <ele>2827.0</ele>
      </trkpt>
      <trkpt lat="46.089845" lon="7.59734">
        <time>1970-01-01T00:00:00+00:00</time>
        <ele>2835.0</ele>
      </trkpt>
      <trkpt lat="46.089539" lon="7.597627">
        <time>1970-01-01T00:00:00+00:00</time>
        <ele>2838.0</ele>
      </trkpt>
      <trkpt lat="46.089449" lon="7.59778">
        <time>1970-01-01T00:00:00+00:00</time>
        <ele>2838.0</ele>
      </trkpt>
      <trkpt lat="46.089238" lon="7.597978">
        <time>1970-01-01T00:00:00+00:00</time>
        <ele>2837.0</ele>
      </trkpt>
      <trkpt lat="46.089168" lon="7.598205">
        <time>1970-01-01T00:00:00+00:00</time>
        <ele>2842.0</ele>
      </trkpt>
      <trkpt lat="46.089157" lon="7.598368">
        <time>1970-01-01T00:00:00+00:00</time>
        <ele>2847.0</ele>
      </trkpt>
      <trkpt lat="46.089082" lon="7.598512">
        <time>1970-01-01T00:00:00+00:00</time>
        <ele>2846.0</ele>
      </trkpt>
      <trkpt lat="46.088966" lon="7.598926">
        <time>1970-01-01T00:00:00+00:00</time>
        <ele>2847.0</ele>
      </trkpt>
      <trkpt lat="46.088908" lon="7.599056">
        <time>1970-01-01T00:00:00+00:00</time>
        <ele>2846.0</ele>
      </trkpt>
      <trkpt lat="46.088848" lon="7.599293">
        <time>1970-01-01T00:00:00+00:00</time>
        <ele>2846.0</ele>
      </trkpt>
      <trkpt lat="46.088835" lon="7.599522">
        <time>1970-01-01T00:00:00+00:00</time>
        <ele>2849.0</ele>
      </trkpt>
      <trkpt lat="46.088771" lon="7.599564">
        <time>1970-01-01T00:00:00+00:00</time>
        <ele>2848.0</ele>
      </trkpt>
      <trkpt lat="46.088699" lon="7.599741">
        <time>1970-01-01T00:00:00+00:00</time>
        <ele>2853.0</ele>
      </trkpt>
      <trkpt lat="46.088572" lon="7.599938">
        <time>1970-01-01T00:00:00+00:00</time>
        <ele>2862.0</ele>
      </trkpt>
      <trkpt lat="46.088505" lon="7.599952">
        <time>1970-01-01T00:00:00+00:00</time>
        <ele>2863.0</ele>
      </trkpt>
      <trkpt lat="46.088398" lon="7.599928">
        <time>1970-01-01T00:00:00+00:00</time>
        <ele>2862.0</ele>
      </trkpt>
      <trkpt lat="46.088337" lon="7.59999">
        <time>1970-01-01T00:00:00+00:00</time>
        <ele>2866.0</ele>
      </trkpt>
      <trkpt lat="46.088241" lon="7.60049">
        <time>1970-01-01T00:00:00+00:00</time>
        <ele>2886.0</ele>
      </trkpt>
      <trkpt lat="46.088184" lon="7.60058">
        <time>1970-01-01T00:00:00+00:00</time>
        <ele>2890.0</ele>
      </trkpt>
      <trkpt lat="46.08815" lon="7.600749">
        <time>1970-01-01T00:00:00+00:00</time>
        <ele>2895.0</ele>
      </trkpt>
      <trkpt lat="46.087957" lon="7.601108">
        <time>1970-01-01T00:00:00+00:00</time>
        <ele>2902.0</ele>
      </trkpt>
      <trkpt lat="46.087836" lon="7.601441">
        <time>1970-01-01T00:00:00+00:00</time>
        <ele>2911.0</ele>
      </trkpt>
      <trkpt lat="46.087761" lon="7.60152">
        <time>1970-01-01T00:00:00+00:00</time>
        <ele>2914.0</ele>
      </trkpt>
      <trkpt lat="46.087674" lon="7.601662">
        <time>1970-01-01T00:00:00+00:00</time>
        <ele>2918.0</ele>
      </trkpt>
      <trkpt lat="46.087584" lon="7.601845">
        <time>1970-01-01T00:00:00+00:00</time>
        <ele>2925.0</ele>
      </trkpt>
      <trkpt lat="46.087479" lon="7.602112">
        <time>1970-01-01T00:00:00+00:00</time>
        <ele>2938.0</ele>
      </trkpt>
      <trkpt lat="46.087408" lon="7.602198">
        <time>1970-01-01T00:00:00+00:00</time>
        <ele>2943.0</ele>
      </trkpt>
      <trkpt lat="46.0874" lon="7.602341">
        <time>1970-01-01T00:00:00+00:00</time>
        <ele>2951.0</ele>
      </trkpt>
      <trkpt lat="46.087442" lon="7.602435">
        <time>1970-01-01T00:00:00+00:00</time>
        <ele>2956.0</ele>
      </trkpt>
      <trkpt lat="46.087205" lon="7.602608">
        <time>1970-01-01T00:00:00+00:00</time>
        <ele>2963.0</ele>
      </trkpt>
      <trkpt lat="46.087145" lon="7.602905">
        <time>1970-01-01T00:00:00+00:00</time>
        <ele>2973.0</ele>
      </trkpt>
      <trkpt lat="46.087073" lon="7.603073">
        <time>1970-01-01T00:00:00+00:00</time>
        <ele>2979.0</ele>
      </trkpt>
      <trkpt lat="46.086961" lon="7.603312">
        <time>1970-01-01T00:00:00+00:00</time>
        <ele>2987.0</ele>
      </trkpt>
      <trkpt lat="46.086867" lon="7.603441">
        <time>1970-01-01T00:00:00+00:00</time>
        <ele>2990.0</ele>
      </trkpt>
      <trkpt lat="46.086801" lon="7.603485">
        <time>1970-01-01T00:00:00+00:00</time>
        <ele>2991.0</ele>
      </trkpt>
      <trkpt lat="46.086847" lon="7.603794">
        <time>1970-01-01T00:00:00+00:00</time>
        <ele>2999.0</ele>
      </trkpt>
      <trkpt lat="46.086847" lon="7.603794">
        <time>1970-01-01T00:00:00+00:00</time>
        <ele>2999.0</ele>
      </trkpt>
      <trkpt lat="46.086801" lon="7.603485">
        <time>1970-01-01T00:00:00+00:00</time>
        <ele>2991.0</ele>
      </trkpt>
      <trkpt lat="46.086867" lon="7.603441">
        <time>1970-01-01T00:00:00+00:00</time>
        <ele>2990.0</ele>
      </trkpt>
      <trkpt lat="46.086961" lon="7.603312">
        <time>1970-01-01T00:00:00+00:00</time>
        <ele>2987.0</ele>
      </trkpt>
      <trkpt lat="46.087073" lon="7.603073">
        <time>1970-01-01T00:00:00+00:00</time>
        <ele>2979.0</ele>
      </trkpt>
      <trkpt lat="46.087145" lon="7.602905">
        <time>1970-01-01T00:00:00+00:00</time>
        <ele>2973.0</ele>
      </trkpt>
      <trkpt lat="46.087205" lon="7.602608">
        <time>1970-01-01T00:00:00+00:00</time>
        <ele>2963.0</ele>
      </trkpt>
      <trkpt lat="46.087442" lon="7.602435">
        <time>1970-01-01T00:00:00+00:00</time>
        <ele>2956.0</ele>
      </trkpt>
      <trkpt lat="46.0874" lon="7.602341">
        <time>1970-01-01T00:00:00+00:00</time>
        <ele>2951.0</ele>
      </trkpt>
      <trkpt lat="46.087408" lon="7.602198">
        <time>1970-01-01T00:00:00+00:00</time>
        <ele>2943.0</ele>
      </trkpt>
      <trkpt lat="46.087479" lon="7.602112">
        <time>1970-01-01T00:00:00+00:00</time>
        <ele>2938.0</ele>
      </trkpt>
      <trkpt lat="46.087584" lon="7.601845">
        <time>1970-01-01T00:00:00+00:00</time>
        <ele>2925.0</ele>
      </trkpt>
      <trkpt lat="46.087674" lon="7.601662">
        <time>1970-01-01T00:00:00+00:00</time>
        <ele>2918.0</ele>
      </trkpt>
      <trkpt lat="46.087761" lon="7.60152">
        <time>1970-01-01T00:00:00+00:00</time>
        <ele>2914.0</ele>
      </trkpt>
      <trkpt lat="46.087836" lon="7.601441">
        <time>1970-01-01T00:00:00+00:00</time>
        <ele>2911.0</ele>
      </trkpt>
      <trkpt lat="46.087957" lon="7.601108">
        <time>1970-01-01T00:00:00+00:00</time>
        <ele>2902.0</ele>
      </trkpt>
      <trkpt lat="46.08815" lon="7.600749">
        <time>1970-01-01T00:00:00+00:00</time>
        <ele>2895.0</ele>
      </trkpt>
      <trkpt lat="46.088184" lon="7.60058">
        <time>1970-01-01T00:00:00+00:00</time>
        <ele>2890.0</ele>
      </trkpt>
      <trkpt lat="46.088241" lon="7.60049">
        <time>1970-01-01T00:00:00+00:00</time>
        <ele>2886.0</ele>
      </trkpt>
      <trkpt lat="46.088337" lon="7.59999">
        <time>1970-01-01T00:00:00+00:00</time>
        <ele>2866.0</ele>
      </trkpt>
      <trkpt lat="46.088398" lon="7.599928">
        <time>1970-01-01T00:00:00+00:00</time>
        <ele>2862.0</ele>
      </trkpt>
      <trkpt lat="46.088505" lon="7.599952">
        <time>1970-01-01T00:00:00+00:00</time>
        <ele>2863.0</ele>
      </trkpt>
      <trkpt lat="46.088572" lon="7.599938">
        <time>1970-01-01T00:00:00+00:00</time>
        <ele>2862.0</ele>
      </trkpt>
      <trkpt lat="46.088699" lon="7.599741">
        <time>1970-01-01T00:00:00+00:00</time>
        <ele>2853.0</ele>
      </trkpt>
      <trkpt lat="46.088771" lon="7.599564">
        <time>1970-01-01T00:00:00+00:00</time>
        <ele>2848.0</ele>
      </trkpt>
      <trkpt lat="46.088835" lon="7.599522">
        <time>1970-01-01T00:00:00+00:00</time>
        <ele>2849.0</ele>
      </trkpt>
      <trkpt lat="46.088848" lon="7.599293">
        <time>1970-01-01T00:00:00+00:00</time>
        <ele>2846.0</ele>
      </trkpt>
      <trkpt lat="46.088908" lon="7.599056">
        <time>1970-01-01T00:00:00+00:00</time>
        <ele>2846.0</ele>
      </trkpt>
      <trkpt lat="46.088966" lon="7.598926">
        <time>1970-01-01T00:00:00+00:00</time>
        <ele>2847.0</ele>
      </trkpt>
      <trkpt lat="46.089082" lon="7.598512">
        <time>1970-01-01T00:00:00+00:00</time>
        <ele>2846.0</ele>
      </trkpt>
      <trkpt lat="46.089157" lon="7.598368">
        <time>1970-01-01T00:00:00+00:00</time>
        <ele>2847.0</ele>
      </trkpt>
      <trkpt lat="46.089168" lon="7.598205">
        <time>1970-01-01T00:00:00+00:00</time>
        <ele>2842.0</ele>
      </trkpt>
      <trkpt lat="46.089238" lon="7.597978">
        <time>1970-01-01T00:00:00+00:00</time>
        <ele>2837.0</ele>
      </trkpt>
      <trkpt lat="46.089449" lon="7.59778">
        <time>1970-01-01T00:00:00+00:00</time>
        <ele>2838.0</ele>
      </trkpt>
      <trkpt lat="46.089539" lon="7.597627">
        <time>1970-01-01T00:00:00+00:00</time>
        <ele>2838.0</ele>
      </trkpt>
      <trkpt lat="46.089845" lon="7.59734">
        <time>1970-01-01T00:00:00+00:00</time>
        <ele>2835.0</ele>
      </trkpt>
      <trkpt lat="46.089983" lon="7.597143">
        <time>1970-01-01T00:00:00+00:00</time>
        <ele>2827.0</ele>
      </trkpt>
      <trkpt lat="46.090091" lon="7.597059">
        <time>1970-01-01T00:00:00+00:00</time>
        <ele>2824.0</ele>
      </trkpt>
      <trkpt lat="46.090306" lon="7.596806">
        <time>1970-01-01T00:00:00+00:00</time>
        <ele>2824.0</ele>
      </trkpt>
      <trkpt lat="46.090361" lon="7.596676">
        <time>1970-01-01T00:00:00+00:00</time>
        <ele>2824.0</ele>
      </trkpt>
      <trkpt lat="46.090442" lon="7.596282">
        <time>1970-01-01T00:00:00+00:00</time>
        <ele>2823.0</ele>
      </trkpt>
      <trkpt lat="46.090573" lon="7.596093">
        <time>1970-01-01T00:00:00+00:00</time>
        <ele>2824.0</ele>
      </trkpt>
      <trkpt lat="46.090623" lon="7.596032">
        <time>1970-01-01T00:00:00+00:00</time>
        <ele>2825.0</ele>
      </trkpt>
      <trkpt lat="46.090872" lon="7.595572">
        <time>1970-01-01T00:00:00+00:00</time>
        <ele>2818.0</ele>
      </trkpt>
      <trkpt lat="46.09098" lon="7.595443">
        <time>1970-01-01T00:00:00+00:00</time>
        <ele>2812.0</ele>
      </trkpt>
      <trkpt lat="46.091274" lon="7.595614">
        <time>1970-01-01T00:00:00+00:00</time>
        <ele>2812.0</ele>
      </trkpt>
      <trkpt lat="46.091356" lon="7.595684">
        <time>1970-01-01T00:00:00+00:00</time>
        <ele>2812.0</ele>
      </trkpt>
      <trkpt lat="46.091542" lon="7.595711">
        <time>1970-01-01T00:00:00+00:00</time>
        <ele>2806.0</ele>
      </trkpt>
      <trkpt lat="46.091783" lon="7.595925">
        <time>1970-01-01T00:00:00+00:00</time>
        <ele>2799.0</ele>
      </trkpt>
      <trkpt lat="46.091925" lon="7.595952">
        <time>1970-01-01T00:00:00+00:00</time>
        <ele>2791.0</ele>
      </trkpt>
      <trkpt lat="46.092137" lon="7.595834">
        <time>1970-01-01T00:00:00+00:00</time>
        <ele>2775.0</ele>
      </trkpt>
      <trkpt lat="46.092055" lon="7.595732">
        <time>1970-01-01T00:00:00+00:00</time>
        <ele>2775.0</ele>
      </trkpt>
      <trkpt lat="46.092133" lon="7.595732">
        <time>1970-01-01T00:00:00+00:00</time>
        <ele>2770.0</ele>
      </trkpt>
      <trkpt lat="46.092167" lon="7.595673">
        <time>1970-01-01T00:00:00+00:00</time>
        <ele>2766.0</ele>
      </trkpt>
      <trkpt lat="46.092096" lon="7.595582">
        <time>1970-01-01T00:00:00+00:00</time>
        <ele>2768.0</ele>
      </trkpt>
      <trkpt lat="46.092293" lon="7.595566">
        <time>1970-01-01T00:00:00+00:00</time>
        <ele>2756.0</ele>
      </trkpt>
      <trkpt lat="46.092338" lon="7.595443">
        <time>1970-01-01T00:00:00+00:00</time>
        <ele>2749.0</ele>
      </trkpt>
      <trkpt lat="46.09242" lon="7.595319">
        <time>1970-01-01T00:00:00+00:00</time>
        <ele>2741.0</ele>
      </trkpt>
      <trkpt lat="46.09254" lon="7.595303">
        <time>1970-01-01T00:00:00+00:00</time>
        <ele>2737.0</ele>
      </trkpt>
      <trkpt lat="46.092429" lon="7.595114">
        <time>1970-01-01T00:00:00+00:00</time>
        <ele>2732.0</ele>
      </trkpt>
      <trkpt lat="46.092628" lon="7.59514">
        <time>1970-01-01T00:00:00+00:00</time>
        <ele>2727.0</ele>
      </trkpt>
      <trkpt lat="46.092558" lon="7.594912">
        <time>1970-01-01T00:00:00+00:00</time>
        <ele>2720.0</ele>
      </trkpt>
      <trkpt lat="46.092789" lon="7.594971">
        <time>1970-01-01T00:00:00+00:00</time>
        <ele>2716.0</ele>
      </trkpt>
      <trkpt lat="46.092685" lon="7.594732">
        <time>1970-01-01T00:00:00+00:00</time>
        <ele>2714.0</ele>
      </trkpt>
      <trkpt lat="46.092885" lon="7.594772">
        <time>1970-01-01T00:00:00+00:00</time>
        <ele>2710.0</ele>
      </trkpt>
      <trkpt lat="46.092759" lon="7.594424">
        <time>1970-01-01T00:00:00+00:00</time>
        <ele>2705.0</ele>
      </trkpt>
      <trkpt lat="46.093254" lon="7.594616">
        <time>1970-01-01T00:00:00+00:00</time>
        <ele>2696.0</ele>
      </trkpt>
      <trkpt lat="46.093419" lon="7.594602">
        <time>1970-01-01T00:00:00+00:00</time>
        <ele>2686.0</ele>
      </trkpt>
      <trkpt lat="46.09356" lon="7.594743">
        <time>1970-01-01T00:00:00+00:00</time>
        <ele>2683.0</ele>
      </trkpt>
      <trkpt lat="46.093584" lon="7.594702">
        <time>1970-01-01T00:00:00+00:00</time>
        <ele>2680.0</ele>
      </trkpt>
      <trkpt lat="46.093483" lon="7.594413">
        <time>1970-01-01T00:00:00+00:00</time>
        <ele>2672.0</ele>
      </trkpt>
      <trkpt lat="46.093339" lon="7.594375">
        <time>1970-01-01T00:00:00+00:00</time>
        <ele>2681.0</ele>
      </trkpt>
      <trkpt lat="46.093525" lon="7.594264">
        <time>1970-01-01T00:00:00+00:00</time>
        <ele>2657.0</ele>
      </trkpt>
      <trkpt lat="46.093657" lon="7.594345">
        <time>1970-01-01T00:00:00+00:00</time>
        <ele>2653.0</ele>
      </trkpt>
      <trkpt lat="46.09373" lon="7.594348">
        <time>1970-01-01T00:00:00+00:00</time>
        <ele>2646.0</ele>
      </trkpt>
      <trkpt lat="46.093815" lon="7.594463">
        <time>1970-01-01T00:00:00+00:00</time>
        <ele>2647.0</ele>
      </trkpt>
      <trkpt lat="46.093789" lon="7.594293">
        <time>1970-01-01T00:00:00+00:00</time>
        <ele>2636.0</ele>
      </trkpt>
      <trkpt lat="46.093728" lon="7.594223">
        <time>1970-01-01T00:00:00+00:00</time>
        <ele>2636.0</ele>
      </trkpt>
      <trkpt lat="46.093694" lon="7.594067">
        <time>1970-01-01T00:00:00+00:00</time>
        <ele>2626.0</ele>
      </trkpt>
      <trkpt lat="46.093651" lon="7.593976">
        <time>1970-01-01T00:00:00+00:00</time>
        <ele>2622.0</ele>
      </trkpt>
      <trkpt lat="46.093554" lon="7.593927">
        <time>1970-01-01T00:00:00+00:00</time>
        <ele>2626.0</ele>
      </trkpt>
      <trkpt lat="46.093699" lon="7.593891">
        <time>1970-01-01T00:00:00+00:00</time>
        <ele>2612.0</ele>
      </trkpt>
      <trkpt lat="46.0938" lon="7.593978">
        <time>1970-01-01T00:00:00+00:00</time>
        <ele>2611.0</ele>
      </trkpt>
      <trkpt lat="46.093971" lon="7.594053">
        <time>1970-01-01T00:00:00+00:00</time>
        <ele>2603.0</ele>
      </trkpt>
      <trkpt lat="46.094149" lon="7.594171">
        <time>1970-01-01T00:00:00+00:00</time>
        <ele>2603.0</ele>
      </trkpt>
      <trkpt lat="46.094179" lon="7.593924">
        <time>1970-01-01T00:00:00+00:00</time>
        <ele>2590.0</ele>
      </trkpt>
      <trkpt lat="46.094239" lon="7.593914">
        <time>1970-01-01T00:00:00+00:00</time>
        <ele>2588.0</ele>
      </trkpt>
      <trkpt lat="46.094462" lon="7.594085">
        <time>1970-01-01T00:00:00+00:00</time>
        <ele>2585.0</ele>
      </trkpt>
      <trkpt lat="46.095013" lon="7.593989">
        <time>1970-01-01T00:00:00+00:00</time>
        <ele>2566.0</ele>
      </trkpt>
      <trkpt lat="46.095221" lon="7.593881">
        <time>1970-01-01T00:00:00+00:00</time>
        <ele>2560.0</ele>
      </trkpt>
      <trkpt lat="46.095444" lon="7.594107">
        <time>1970-01-01T00:00:00+00:00</time>
        <ele>2567.0</ele>
      </trkpt>
      <trkpt lat="46.095518" lon="7.593753">
        <time>1970-01-01T00:00:00+00:00</time>
        <ele>2558.0</ele>
      </trkpt>
      <trkpt lat="46.095779" lon="7.593774">
        <time>1970-01-01T00:00:00+00:00</time>
        <ele>2562.0</ele>
      </trkpt>
      <trkpt lat="46.096084" lon="7.59386">
        <time>1970-01-01T00:00:00+00:00</time>
        <ele>2568.0</ele>
      </trkpt>
      <trkpt lat="46.096292" lon="7.593892">
        <time>1970-01-01T00:00:00+00:00</time>
        <ele>2568.0</ele>
      </trkpt>
      <trkpt lat="46.096664" lon="7.593763">
        <time>1970-01-01T00:00:00+00:00</time>
        <ele>2561.0</ele>
      </trkpt>
      <trkpt lat="46.096731" lon="7.593603">
        <time>1970-01-01T00:00:00+00:00</time>
        <ele>2557.0</ele>
      </trkpt>
      <trkpt lat="46.096798" lon="7.593624">
        <time>1970-01-01T00:00:00+00:00</time>
        <ele>2558.0</ele>
      </trkpt>
      <trkpt lat="46.096873" lon="7.593506">
        <time>1970-01-01T00:00:00+00:00</time>
        <ele>2558.0</ele>
      </trkpt>
      <trkpt lat="46.097081" lon="7.593442">
        <time>1970-01-01T00:00:00+00:00</time>
        <ele>2559.0</ele>
      </trkpt>
      <trkpt lat="46.096948" lon="7.593066">
        <time>1970-01-01T00:00:00+00:00</time>
        <ele>2556.0</ele>
      </trkpt>
      <trkpt lat="46.09717" lon="7.593098">
        <time>1970-01-01T00:00:00+00:00</time>
        <ele>2555.0</ele>
      </trkpt>
      <trkpt lat="46.097319" lon="7.593055">
        <time>1970-01-01T00:00:00+00:00</time>
        <ele>2554.0</ele>
      </trkpt>
      <trkpt lat="46.097795" lon="7.593313">
        <time>1970-01-01T00:00:00+00:00</time>
        <ele>2557.0</ele>
      </trkpt>
      <trkpt lat="46.098241" lon="7.593184">
        <time>1970-01-01T00:00:00+00:00</time>
        <ele>2561.0</ele>
      </trkpt>
      <trkpt lat="46.098658" lon="7.59254">
        <time>1970-01-01T00:00:00+00:00</time>
        <ele>2534.0</ele>
      </trkpt>
      <trkpt lat="46.099104" lon="7.592755">
        <time>1970-01-01T00:00:00+00:00</time>
        <ele>2544.0</ele>
      </trkpt>
      <trkpt lat="46.0997" lon="7.592455">
        <time>1970-01-01T00:00:00+00:00</time>
        <ele>2541.0</ele>
      </trkpt>
      <trkpt lat="46.100354" lon="7.591854">
        <time>1970-01-01T00:00:00+00:00</time>
        <ele>2534.0</ele>
      </trkpt>
      <trkpt lat="46.101039" lon="7.59194">
        <time>1970-01-01T00:00:00+00:00</time>
        <ele>2538.0</ele>
      </trkpt>
      <trkpt lat="46.101545" lon="7.591296">
        <time>1970-01-01T00:00:00+00:00</time>
        <ele>2532.0</ele>
      </trkpt>
      <trkpt lat="46.10191" lon="7.590249">
        <time>1970-01-01T00:00:00+00:00</time>
        <ele>2524.0</ele>
      </trkpt>
      <trkpt lat="46.102202" lon="7.5895">
        <time>1970-01-01T00:00:00+00:00</time>
        <ele>2520.0</ele>
      </trkpt>
      <trkpt lat="46.102686" lon="7.58853">
        <time>1970-01-01T00:00:00+00:00</time>
        <ele>2503.0</ele>
      </trkpt>
      <trkpt lat="46.10331" lon="7.58757">
        <time>1970-01-01T00:00:00+00:00</time>
        <ele>2484.0</ele>
      </trkpt>
      <trkpt lat="46.103766" lon="7.587396">
        <time>1970-01-01T00:00:00+00:00</time>
        <ele>2478.0</ele>
      </trkpt>
      <trkpt lat="46.103603" lon="7.586839">
        <time>1970-01-01T00:00:00+00:00</time>
        <ele>2464.0</ele>
      </trkpt>
      <trkpt lat="46.103725" lon="7.586168">
        <time>1970-01-01T00:00:00+00:00</time>
        <ele>2451.0</ele>
      </trkpt>
      <trkpt lat="46.104223" lon="7.585803">
        <time>1970-01-01T00:00:00+00:00</time>
        <ele>2441.0</ele>
      </trkpt>
      <trkpt lat="46.104699" lon="7.584773">
        <time>1970-01-01T00:00:00+00:00</time>
        <ele>2413.0</ele>
      </trkpt>
      <trkpt lat="46.105015" lon="7.58448">
        <time>1970-01-01T00:00:00+00:00</time>
        <ele>2399.0</ele>
      </trkpt>
      <trkpt lat="46.105956" lon="7.584025">
        <time>1970-01-01T00:00:00+00:00</time>
        <ele>2387.0</ele>
      </trkpt>
      <trkpt lat="46.105938" lon="7.582636">
        <time>1970-01-01T00:00:00+00:00</time>
        <ele>2370.0</ele>
      </trkpt>
      <trkpt lat="46.105986" lon="7.581795">
        <time>1970-01-01T00:00:00+00:00</time>
        <ele>2361.0</ele>
      </trkpt>
      <trkpt lat="46.10612" lon="7.581098">
        <time>1970-01-01T00:00:00+00:00</time>
        <ele>2360.0</ele>
      </trkpt>
      <trkpt lat="46.106016" lon="7.580272">
        <time>1970-01-01T00:00:00+00:00</time>
        <ele>2355.0</ele>
      </trkpt>
      <trkpt lat="46.106122" lon="7.579895">
        <time>1970-01-01T00:00:00+00:00</time>
        <ele>2354.0</ele>
      </trkpt>
      <trkpt lat="46.106323" lon="7.579174">
        <time>1970-01-01T00:00:00+00:00</time>
        <ele>2349.0</ele>
      </trkpt>
      <trkpt lat="46.106472" lon="7.579">
        <time>1970-01-01T00:00:00+00:00</time>
        <ele>2349.0</ele>
      </trkpt>
      <trkpt lat="46.106545" lon="7.578926">
        <time>1970-01-01T00:00:00+00:00</time>
        <ele>2348.0</ele>
      </trkpt>
      <trkpt lat="46.106713" lon="7.578672">
        <time>1970-01-01T00:00:00+00:00</time>
        <ele>2347.0</ele>
      </trkpt>
    </trkseg>
  </trk>
</gpx>
